Location: Unspecified
(48.2082°N, 0.0000°E)
Time: 17:11:23
(UTC+00:00)

S-56A Canister/Altair - All Passes

Search period start: 20 June 2019 00:00
Search period end: 30 June 2019 00:00
Orbit: 633 x 2499 km, 38.9° (Epoch: 19 June)

Date Brightness Start Highest point End Pass type
(mag) Time Alt. Az. Time Alt. Az. Time Alt. Az.
20 Jun - 14:43:09 10° S 14:47:55 15° SSE 14:51:55 10° ESE daylight
20 Jun - 16:44:37 10° SW 16:51:31 29° SSE 16:56:34 10° ESE daylight
20 Jun - 18:48:58 10° WSW 18:54:49 33° S 18:59:15 10° ESE daylight
20 Jun - 20:54:04 10° WSW 20:57:32 18° SSW 21:00:37 10° SSE visible
21 Jun - 14:10:25 10° S 14:15:08 14° SSE 14:19:09 10° ESE daylight
21 Jun - 16:11:27 10° SW 16:18:50 29° SSE 16:24:13 10° ESE daylight
21 Jun - 18:15:50 10° WSW 18:22:17 35° S 18:27:01 10° ESE daylight
21 Jun - 20:20:58 10° WSW 20:25:06 21° SSW 20:28:36 10° SSE daylight
22 Jun - 13:37:48 10° S 13:42:20 14° SSE 13:46:15 10° ESE daylight
22 Jun - 15:38:14 10° SW 15:46:07 29° SSE 15:51:50 10° ESE daylight
22 Jun - 17:42:36 10° WSW 17:49:42 37° S 17:54:45 10° ESE daylight
22 Jun - 19:47:50 10° WSW 19:52:39 24° SSW 19:56:32 10° SSE daylight
23 Jun - 13:05:20 10° SSE 13:09:30 13° SE 13:13:10 10° ESE daylight
23 Jun - 15:05:00 10° SW 15:13:21 29° SSE 15:19:25 10° ESE daylight
23 Jun - 17:09:19 10° WSW 17:17:04 38° S 17:22:29 10° ESE daylight
23 Jun - 19:14:39 10° WSW 19:20:10 28° SSW 19:24:27 10° SE daylight
24 Jun - 12:33:10 10° SSE 12:36:37 12° SE 12:39:46 10° SE daylight
24 Jun - 14:31:46 10° SSW 14:40:31 28° SSE 14:46:57 10° ESE daylight
24 Jun - 16:35:58 10° WSW 16:44:23 40° S 16:50:11 10° ESE daylight
24 Jun - 18:41:24 10° WSW 18:47:40 31° SSW 18:52:19 10° SE daylight
24 Jun - 20:48:49 10° SW 20:50:00 11° SW 20:51:09 10° SSW visible
25 Jun - 12:01:34 10° SSE 12:03:43 11° SE 12:05:45 10° SE daylight
25 Jun - 13:58:32 10° SSW 14:07:39 27° SSE 14:14:25 10° ESE daylight
25 Jun - 16:02:34 10° WSW 16:11:39 40° S 16:17:52 10° ESE daylight
25 Jun - 18:08:05 10° WSW 18:15:07 35° SSW 18:20:10 10° SE daylight
25 Jun - 20:14:41 10° WSW 20:17:35 14° SW 20:20:09 10° S daylight
26 Jun - 13:25:20 10° SSW 13:34:43 27° SSE 13:41:50 10° ESE daylight
26 Jun - 15:29:07 10° SW 15:38:51 41° S 15:45:31 10° ESE daylight
26 Jun - 17:34:42 10° WSW 17:42:31 38° SSW 17:47:59 10° SE daylight
26 Jun - 19:41:04 10° WSW 19:45:09 17° SW 19:48:34 10° S daylight
27 Jun - 12:52:11 10° SSW 13:01:45 26° SSE 13:09:09 10° E daylight
27 Jun - 14:55:38 10° SW 15:06:00 41° S 15:13:07 10° ESE daylight
27 Jun - 17:01:15 10° WSW 17:09:51 41° S 17:15:44 10° ESE daylight
27 Jun - 19:07:33 10° WSW 19:12:42 21° SSW 19:16:46 10° SSE daylight
28 Jun - 12:19:06 10° SSW 12:28:45 24° SSE 12:36:23 10° E daylight
28 Jun - 14:22:09 10° SW 14:33:05 41° SSE 14:40:41 10° E daylight
28 Jun - 16:27:45 10° WSW 16:37:08 44° S 16:43:29 10° ESE daylight
28 Jun - 18:34:02 10° W 18:40:12 25° SSW 18:44:52 10° SSE daylight
29 Jun - 11:46:07 10° S 11:55:42 23° SSE 12:03:31 10° E daylight
29 Jun - 13:48:40 10° SW 14:00:06 41° SSE 14:08:11 10° E daylight
29 Jun - 15:54:10 10° WSW 16:04:21 46° S 16:11:10 10° ESE daylight
29 Jun - 18:00:31 10° W 18:07:40 29° SSW 18:12:51 10° SSE daylight
